Wind_Speed
20 20 20 20 21 22 22 21 21 22 24 23 23 24 24 25 25 26 26 26 26 26 26 26 27 28 29 29 30 31 32 32 32 32 32 32 32 32 32 32 33 33 33 34 34 34 35 35 35 35 35 35 35 35 34 34 34 34 34 34 34 34 34 34 34 34 35 35 34 34 34 34 34 34 34 34 34 34 34 34 34 34 34 34 34 34
20 20 20 20 20 21 22 21 21 22 23 25 25 25 25 26 26 26 26 25 25 25 25 26 27 28 29 30 31 31 31 31 31 31 31 31 31 32 32 33 33 34 34 34 35 35 35 35 35 34 34 34 34 34 34 34 34 34 35 35 35 35 35 34 35 35 35 35 35 35 35 35 35 35 35 35 35 35 35 35 35 35 35 35 35 35
21 21 20 20 20 20 22 22 22 22 23 25 26 26 26 27 27 26 25 24 24 24 24 26 27 29 30 30 30 30 29 29 29 29 30 31 32 32 33 33 34 34 35 35 35 35 34 34 34 34 34 34 34 34 34 34 34 35 35 35 35 35 35 35 35 35 35 35 35 35 35 35 35 35 35 35 35 35 35 36 36 36 36 36 36 36
20 21 21 20 20 21 22 23 23 24 24 25 25 26 26 26 25 24 23 23 23 24 25 26 28 29 29 29 28 28 28 28 29 30 31 32 32 33 33 34 34 34 34 34 34 34 34 34 34 34 34 34 34 34 34 34 34 34 34 35 35 35 35 35 35 35 35 35 35 35 35 35 35 35 35 35 35 35 35 35 35 35 36 36 36 36
20 20 21 21 21 22 22 23 24 24 25 25 25 24 24 23 23 22 22 23 24 25 26 27 27 27 27 27 27 27 27 28 29 31 32 33 33 33 33 34 34 34 34 34 34 34 33 33 33 33 34 34 34 34 34 34 34 35 35 35 35 35 35 35 35 35 35 35 35 35 35 35 35 35 35 35 35 35 35 35 35 35 35 36 36 36
20 20 21 21 22 22 23 23 24 24 24 24 23 22 22 21 22 22 23 24 25 26 27 27 26 26 26 26 26 27 28 29 30 31 32 32 33 33 33 33 33 33 33 33 33 33 33 33 33 33 33 34 34 34 34 34 34 34 35 35 35 35 35 35 35 35 35 35 35 34 34 34 34 34 34 34 34 34 35 35 35 35 35 36 36 36
21 21 21 22 23 23 23 23 23 23 23 22 21 20 20 21 22 23 24 25 26 26 26 26 26 25 25 25 26 27 28 29 30 31 31 32 32 32 32 32 32 33 33 33 33 33 33 33 33 33 33 33 34 34 34 34 34 34 34 34 34 34 34 34 34 34 34 34 34 34 33 33 33 33 33 33 33 34 34 34 35 35 35 35 36 36
23 23 22 22 23 24 24 23 21 20 20 20 19 19 21 22 23 24 25 26 26 26 26 25 25 25 25 25 26 27 28 29 30 30 30 30 30 31 31 31 32 32 33 33 33 33 33 33 33 33 33 33 33 34 34 34 34 34 34 34 34 34 34 34 34 34 33 33 33 33 33 32 32 32 32 32 33 33 33 34 34 34 34 35 35 35
22 23 23 22 22 23 23 23 20 18 18 18 18 19 22 24 26 26 26 25 25 25 25 25 25 25 25 25 26 27 28 29 30 30 30 30 30 30 31 31 32 32 32 32 32 32 32 32 32 33 33 33 33 33 33 33 33 33 33 33 33 33 33 33 33 33 33 32 32 32 32 32 32 32 32 32 32 32 32 33 33 33 34 34 35 35
22 22 23 23 22 21 20 20 19 18 18 18 19 21 23 25 26 26 26 25 24 24 24 24 25 25 26 26 26 27 28 29 30 30 30 30 30 30 31 31 31 31 31 31 31 31 31 32 32 32 32 32 32 33 33 33 33 33 33 32 32 32 32 32 32 32 32 31 31 31 31 31 31 31 31 31 32 32 32 32 33 33 33 34 34 35
21 22 22 22 21 19 17 17 18 19 20 22 24 24 24 24 25 25 25 24 24 24 24 24 24 25 26 27 27 27 28 29 29 29 29 28 28 29 29 29 29 29 30 30 30 30 31 31 31 32 32 32 32 32 32 32 32 31 31 31 31 31 31 31 31 31 31 31 31 31 31 31 31 31 32 32 32 32 33 33 33 33 34 34 34 35
20 21 20 19 18 17 17 18 19 21 23 24 25 24 23 23 23 23 23 23 24 24 24 24 25 25 26 26 27 27 27 28 28 28 28 27 27 26 27 27 27 28 28 29 29 29 30 30 30 31 31 31 31 31 31 30 30 30 30 30 30 30 30 30 30 30 31 31 31 31 32 32 32 32 32 33 33 33 33 34 34 34 34 34 35 35
20 19 18 16 16 17 18 20 22 23 23 23 22 22 22 23 23 23 23 23 24 24 24 25 26 26 26 26 26 25 25 26 27 27 27 26 26 25 26 27 27 28 28 28 29 29 29 29 30 30 30 30 29 29 29 29 29 29 29 29 29 29 30 30 31 31 31 32 32 32 32 33 33 33 33 33 33 34 34 34 34 34 34 35 35 35
18 17 16 16 16 18 20 22 23 23 22 22 22 22 23 23 23 23 22 23 23 24 25 26 26 26 26 24 23 23 23 25 26 27 27 26 25 25 26 27 28 28 28 29 29 29 29 29 29 29 29 28 28 28 28 28 28 29 29 29 30 30 31 31 32 32 32 33 33 33 33 33 33 33 33 33 34 34 34 34 34 34 34 35 35 35
16 15 16 16 17 19 21 22 22 22 22 23 23 23 24 23 22 22 21 22 23 24 25 26 26 25 24 22 21 21 22 24 26 27 27 27 26 26 26 27 28 29 29 29 29 29 29 28 28 28 28 28 28 28 28 29 29 30 30 31 31 32 32 33 33 33 33 33 33 33 33 33 33 33 34 34 34 34 34 34 35 35 35 35 35 35
16 16 16 17 19 20 21 21 22 22 23 23 23 22 22 22 21 21 21 22 23 24 23 23 22 21 22 21 20 20 22 24 26 27 28 28 28 27 26 27 28 29 29 29 28 28 28 28 27 27 27 28 28 28 29 30 31 32 32 32 33 33 33 33 33 33 33 33 33 33 33 33 34 34 34 34 34 35 35 35 35 35 35 35 35 35
17 18 18 19 19 20 21 22 22 22 23 23 22 21 21 20 21 21 21 22 23 23 21 19 12 9 13 20 22 22 23 24 26 27 28 29 29 28 27 27 28 29 29 29 28 27 27 27 27 27 27 28 29 30 31 32 32 33 33 33 33 33 33 33 33 33 33 33 34 34 34 34 34 34 34 34 34 34 35 35 35 35 36 36 36 36
20 19 19 19 19 20 21 21 22 22 22 22 21 21 21 21 21 21 22 22 22 21 19 18 13 8 7 14 22 26 25 25 26 27 27 28 29 29 27 26 27 28 28 28 28 28 27 27 28 28 28 29 30 31 32 33 33 33 33 33 33 33 33 34 34 34 34 34 34 34 34 34 34 34 34 34 34 34 34 35 35 35 36 36 36 37
21 20 19 20 20 20 21 21 21 22 21 21 21 21 21 21 22 22 23 22 21 19 18 16 16 16 16 20 25 29 27 26 26 26 26 27 29 29 27 26 26 27 28 28 28 28 27 28 28 29 30 30 31 32 32 32 32 32 33 33 34 34 34 34 35 35 35 34 34 34 34 34 34 34 34 34 34 34 34 35 35 35 35 36 36 37
21 21 21 20 21 21 22 22 22 22 22 21 21 22 23 23 24 24 24 23 21 19 18 17 18 20 23 26 29 30 28 27 25 25 25 26 28 28 27 25 25 26 28 28 28 28 28 28 29 29 29 30 30 31 31 32 33 33 34 34 34 35 35 35 35 35 35 34 34 34 34 34 34 34 34 34 34 34 34 34 35 35 35 35 36 36
22 22 21 22 22 22 22 22 22 22 22 22 23 24 24 25 25 24 21 19 17 18 19 20 21 24 26 27 29 30 29 26 24 24 24 25 26 26 26 25 25 26 28 29 28 28 28 28 28 29 29 29 30 31 32 33 34 34 35 35 35 35 35 34 34 34 34 34 34 33 33 33 33 33 33 33 33 34 34 34 34 35 35 35 36 36
23 23 23 23 23 23 23 23 23 23 23 24 24 24 25 23 21 19 18 18 19 20 22 23 25 27 28 29 30 30 28 26 24 22 22 20 22 25 26 25 25 26 27 28 28 28 27 28 28 29 29 30 31 33 33 34 35 35 35 35 34 34 34 34 33 33 33 33 33 33 33 33 33 33 33 33 34 34 34 34 34 35 35 35 36 36
23 24 24 23 23 23 23 23 23 24 24 24 25 25 24 21 19 18 19 21 22 24 25 27 27 28 28 28 28 28 26 24 23 22 19 13 17 24 26 25 25 25 27 27 28 28 28 28 28 29 30 31 32 33 34 34 34 34 34 34 33 33 33 33 32 32 32 32 32 32 33 33 33 33 34 34 34 34 34 34 34 34 35 35 35 36
23 23 23 22 23 24 25 25 25 25 25 25 25 24 23 21 21 22 24 24 24 25 25 26 26 26 26 26 26 26 25 23 21 20 18 16 18 23 25 25 24 25 27 28 28 28 28 29 29 30 30 31 32 33 33 33 33 33 33 32 32 32 32 31 32 32 32 32 33 33 33 34 34 34 34 34 34 34 35 35 35 35 35 35 35 36
22 22 23 23 25 26 27 27 28 28 28 28 27 26 24 23 23 24 25 25 24 23 22 21 21 21 22 23 23 24 24 22 21 20 19 18 20 23 25 24 24 24 26 28 28 27 28 29 30 31 31 31 31 32 32 32 32 31 31 31 30 31 31 31 32 32 33 33 34 34 34 34 34 34 34 34 34 34 35 35 35 36 36 36 36 36
23 24 25 27 28 29 30 31 31 30 29 28 27 26 24 24 23 23 22 22 21 20 19 18 16 17 20 21 21 22 24 23 21 20 20 19 20 22 24 24 23 24 26 28 28 28 28 30 31 31 31 31 31 30 30 30 29 29 29 30 30 31 32 32 33 33 33 34 34 34 33 33 34 34 34 34 34 34 34 35 35 36 37 37 38 38
25 26 28 29 29 29 28 28 27 27 26 26 25 24 24 23 22 20 20 19 19 18 17 13 11 13 17 18 19 22 24 24 22 21 20 20 19 20 22 23 23 24 26 28 29 29 29 29 30 31 30 30 29 28 28 27 28 28 29 30 31 32 32 33 33 33 33 33 33 33 33 33 33 33 33 33 34 34 34 35 35 35 36 37 37 37
26 27 27 27 26 25 24 24 25 25 25 25 24 24 23 21 20 18 18 18 18 18 17 13 10 9 10 14 18 23 26 25 23 22 20 19 17 17 21 23 23 24 25 27 29 30 29 28 28 29 28 28 27 27 27 27 28 29 30 31 31 32 32 32 32 32 32 32 32 32 32 32 32 32 33 33 33 34 34 35 35 35 36 35 35 34
24 24 24 23 22 22 22 23 24 24 24 23 22 21 20 19 18 18 19 19 18 17 17 16 14 13 12 16 20 24 25 25 23 21 19 17 16 17 21 23 23 24 24 25 28 29 28 26 25 25 25 26 26 26 27 27 28 29 30 30 30 30 30 30 30 30 30 31 31 31 31 32 32 32 33 33 33 34 34 35 35 35 34 33 32 32
22 21 21 20 20 21 22 22 23 22 22 21 21 20 18 17 17 18 19 19 18 17 17 17 17 17 16 16 15 16 19 22 22 19 17 15 15 18 21 22 23 23 23 21 18 18 21 24 24 24 24 25 26 27 28 28 28 28 29 29 29 29 29 29 29 29 30 30 31 31 31 31 32 32 32 33 33 33 34 34 34 33 33 32 31 31
21 21 20 21 21 21 21 21 21 21 20 20 19 18 18 17 17 17 18 18 17 17 17 17 18 18 17 11 7 5 8 20 22 19 18 16 16 18 21 21 22 23 23 18 9 5 11 17 23 26 25 26 27 28 28 28 28 28 28 28 29 29 28 28 28 29 29 30 30 30 30 31 31 31 32 32 33 33 33 34 33 32 32 32 31 30
21 21 21 21 21 21 20 20 20 19 19 19 18 18 17 17 17 17 17 17 17 17 18 18 19 19 18 14 10 8 10 21 25 23 20 18 18 20 21 21 21 23 23 21 16 10 8 7 17 28 28 28 28 28 28 28 27 27 27 28 28 29 29 28 28 28 28 29 29 29 30 30 31 31 31 32 32 32 33 33 33 32 31 31 30 29
20 21 21 21 21 20 20 19 19 19 18 18 18 18 18 18 18 18 18 18 18 18 18 19 19 19 19 19 18 19 22 26 26 24 22 19 18 20 22 21 22 23 24 24 23 20 14 11 18 27 29 29 28 28 28 27 27 26 26 27 28 28 29 28 28 28 28 28 29 29 30 30 30 30 31 31 31 32 32 32 32 31 31 30 30 29
20 20 20 20 20 20 19 19 19 18 18 18 18 18 18 18 18 18 18 18 18 19 19 19 19 19 19 19 20 23 26 28 26 24 22 20 20 20 23 22 23 23 23 22 22 22 20 21 22 24 25 28 30 29 28 27 26 26 26 26 27 28 28 28 28 28 28 28 29 29 29 29 29 29 29 29 30 30 31 31 32 32 32 32 33 32
20 20 19 19 19 19 19 18 18 18 18 18 18 18 18 18 18 19 19 19 19 20 20 21 21 21 21 20 20 22 26 28 28 26 23 22 22 22 23 23 23 23 21 21 21 19 18 22 24 23 22 25 28 29 28 27 26 26 27 27 27 28 28 28 28 28 28 29 29 29 29 28 28 28 28 28 29 30 31 32 33 34 34 35 36 35
19 19 19 18 18 18 18 18 18 18 18 18 18 18 18 18 19 20 20 21 21 22 22 22 23 23 24 24 23 24 27 30 30 29 26 24 23 23 23 23 24 23 21 21 20 19 17 19 22 24 22 18 19 24 29 29 28 27 28 28 28 28 28 28 28 28 28 28 29 29 29 28 28 28 29 29 30 31 33 34 35 35 35 35 35 36
18 18 18 18 17 17 18 18 18 18 18 19 19 19 19 19 20 21 22 22 23 23 24 24 24 25 25 26 27 28 30 31 31 31 30 28 27 26 25 25 26 25 23 21 21 21 19 16 16 18 19 15 14 18 25 29 30 29 29 29 29 29 29 28 28 27 27 28 28 28 29 29 29 29 30 30 31 31 32 32 33 33 33 33 34 34
17 17 17 17 17 17 18 18 18 19 19 19 20 20 21 21 22 23 23 24 24 25 25 25 25 25 26 27 29 31 32 33 34 34 34 32 30 28 26 26 27 27 25 23 22 22 20 13 11 11 11 16 20 24 27 28 29 29 30 31 30 30 29 28 27 27 27 27 28 28 29 29 29 29 29 29 29 29 30 30 30 31 31 32 33 33
17 17 17 17 17 17 17 18 19 19 20 20 21 21 22 22 23 24 24 24 24 24 24 24 24 25 27 28 30 31 31 32 33 34 34 33 31 29 28 26 27 27 27 25 24 23 21 17 13 10 9 12 19 24 28 27 27 28 30 31 31 31 29 28 27 26 27 27 28 29 29 29 28 28 28 28 28 28 29 29 30 31 31 31 31 33
17 17 17 18 18 18 18 18 19 20 21 21 22 22 22 22 22 23 23 22 22 22 23 23 24 25 26 27 28 29 29 30 31 32 32 32 32 31 30 28 27 27 27 26 25 23 22 21 21 21 20 16 17 22 25 27 28 28 29 27 27 28 30 29 28 28 28 28 28 28 28 28 28 27 28 28 28 28 28 29 31 33 33 32 31 31
17 17 18 18 18 18 19 19 20 20 21 21 22 22 21 21 21 22 22 22 23 23 23 23 23 24 26 27 28 29 29 29 30 29 30 31 31 31 30 29 28 27 26 26 25 24 23 23 23 23 24 23 23 24 25 27 28 29 28 25 25 28 31 31 29 28 28 27 27 27 27 28 28 28 28 29 30 30 30 30 31 33 33 32 31 29
17 17 18 18 19 19 19 20 20 20 20 21 21 20 20 20 20 21 22 22 23 23 23 22 22 23 25 27 29 29 28 28 28 28 28 29 29 29 29 28 27 26 26 26 26 26 25 25 24 23 24 24 23 22 23 27 29 29 28 26 27 29 30 30 28 27 26 26 27 27 28 27 28 28 28 28 30 31 31 32 32 32 32 32 32 31
17 18 18 19 19 20 20 20 20 20 20 20 20 20 20 20 20 21 21 22 23 23 23 22 22 22 24 26 28 29 29 28 28 27 27 26 26 27 27 28 28 28 27 26 25 26 26 26 25 25 25 24 23 22 22 25 28 29 28 28 27 24 20 24 27 27 26 27 27 27 27 27 27 28 28 28 29 30 31 31 31 31 31 32 32 31
17 18 19 19 19 20 20 20 20 20 20 20 20 21 21 20 20 20 21 21 22 23 22 22 22 22 22 23 25 27 28 29 28 28 26 26 25 26 26 27 27 27 27 25 24 25 26 26 26 26 26 25 24 23 24 25 26 28 29 29 27 24 20 23 27 29 29 28 28 27 27 27 28 29 30 29 30 30 30 30 30 31 32 33 32 31
17 18 19 19 19 20 19 20 20 20 20 21 21 21 21 21 20 20 21 21 22 22 22 22 21 20 20 21 23 24 26 27 28 28 27 26 25 25 25 25 26 26 26 26 25 24 23 24 25 26 26 25 24 23 23 24 25 27 28 28 27 26 27 28 28 28 27 27 28 28 28 28 28 28 28 29 30 30 30 29 30 31 32 33 32 30
18 18 19 19 19 19 20 20 20 21 21 21 21 21 21 21 21 20 21 21 21 22 22 22 20 19 19 20 22 23 23 25 27 27 27 27 26 26 25 25 25 25 25 25 26 26 25 25 26 26 26 24 24 24 25 25 25 25 26 27 27 26 27 28 27 27 27 27 28 28 28 28 27 27 27 28 30 31 30 29 29 30 31 32 32 31
18 18 18 19 19 19 19 20 20 20 21 21 21 21 21 21 21 21 21 21 21 21 21 21 20 19 20 21 21 21 21 23 25 26 27 27 27 26 25 25 25 25 25 25 25 26 27 27 28 27 25 22 21 22 25 26 26 25 26 26 26 25 25 26 27 27 27 27 27 28 28 28 28 28 28 29 30 31 30 29 29 29 30 31 30 30
18 18 19 19 19 20 20 20 20 20 20 21 21 22 22 22 21 21 21 21 21 21 21 21 20 20 20 21 21 21 22 22 23 25 26 27 27 26 26 25 25 24 25 25 25 26 26 28 28 27 26 23 20 20 23 26 27 26 26 26 25 24 24 26 27 27 27 26 27 27 28 27 25 25 26 27 28 29 30 30 30 29 30 30 29 29
18 19 19 19 19 19 20 20 20 20 20 21 22 22 23 23 22 21 21 21 21 21 20 20 19 19 19 20 21 22 23 23 24 24 25 26 26 25 25 25 26 26 26 26 26 25 26 26 26 25 25 24 23 22 23 25 26 26 26 25 24 23 24 25 27 28 27 27 27 28 27 26 26 26 25 24 24 26 29 30 30 30 30 29 29 29
18 18 19 19 19 19 20 20 20 20 20 21 22 23 23 24 23 22 21 21 21 20 20 20 20 19 19 20 21 22 23 23 23 24 25 25 25 25 24 25 26 26 26 25 24 24 23 22 21 21 20 21 21 22 22 23 24 25 25 24 24 24 24 25 27 28 27 27 27 28 27 28 27 26 25 23 22 24 26 28 29 30 30 29 29 30
18 18 19 19 19 19 20 20 20 21 21 21 22 23 23 23 23 22 22 21 20 20 20 20 20 20 20 21 21 22 23 23 23 23 24 25 25 24 24 24 25 24 22 20 18 17 15 13 13 16 18 18 18 18 20 21 23 23 23 24 24 24 24 25 26 27 27 27 27 27 27 27 26 25 23 21 19 18 19 22 27 29 31 30 30 31
Wind_Direction
301 302 304 305 304 302 301 301 302 302 302 303 303 303 303 302 301 300 299 298 298 297 297 296 296 296 296 296 295 295 295 295 295 294 294 294 294 295 295 295 295 295 294 294 294 293 293 293 293 293 293 292 292 291 291 290 289 289 288 288 287 287 286 286 285 285 284 284 283 282 282 281 280 280 279 279 279 279 280 280 280 281 280 280 279 278
302 303 303 303 303 301 301 302 302 302 303 303 303 302 302 301 300 299 299 298 297 296 297 297 297 296 296 296 295 295 295 294 294 294 295 295 295 296 296 296 296 295 295 294 294 294 293 293 293 292 292 291 290 290 289 289 288 288 287 287 287 286 286 285 285 284 284 283 283 282 282 281 281 280 280 280 280 281 280 280 279 279 278 278 278 277
304 303 302 303 302 301 302 303 303 302 301 301 301 300 300 299 298 298 298 298 297 297 296 297 297 297 296 295 295 294 294 295 295 295 296 296 297 297 297 297 296 296 295 295 294 294 293 293 292 291 291 290 290 289 289 289 288 288 288 288 287 287 286 285 285 284 284 283 283 283 282 282 282 281 281 281 281 280 279 278 277 277 276 275 275 274
302 302 302 303 303 301 301 302 302 302 300 298 298 298 297 297 297 297 297 297 298 297 297 296 296 296 296 295 295 295 296 296 297 297 298 298 298 298 298 297 297 296 295 294 294 293 293 292 291 291 291 290 290 290 289 289 289 289 288 288 287 286 286 285 285 284 284 283 283 283 282 282 282 282 281 281 280 280 279 278 277 276 276 275 274 273
299 299 301 303 302 301 300 300 300 300 299 297 296 296 296 296 296 296 296 297 297 297 297 297 296 296 296 296 296 297 298 298 299 299 299 299 299 298 298 297 296 295 295 294 294 293 293 292 292 291 291 291 290 290 290 289 289 288 288 287 287 286 286 285 285 284 284 284 284 283 283 282 282 281 281 281 280 280 279 278 278 277 276 276 275 274
297 298 300 301 300 299 300 299 298 298 297 296 295 296 296 297 297 297 297 297 297 297 297 297 297 297 296 297 298 299 300 301 300 300 299 299 298 298 297 296 296 295 294 294 294 293 293 293 292 292 291 291 291 290 290 289 289 288 288 287 287 287 287 286 286 286 285 285 285 284 284 283 283 282 282 281 281 280 279 278 278 277 276 276 275 275
298 298 299 299 298 297 297 296 296 296 296 297 297 298 297 298 298 298 297 297 298 298 298 298 298 298 298 299 300 302 302 302 301 300 299 299 298 297 297 296 296 295 294 294 294 293 293 293 292 292 291 291 291 291 290 290 290 290 289 289 289 289 289 288 288 288 287 287 286 286 285 285 284 283 283 282 281 280 279 278 277 277 276 275 274 274
298 298 298 297 297 297 295 294 293 294 295 297 299 300 300 300 299 299 298 298 299 300 300 300 300 300 300 302 303 303 303 302 300 300 299 298 298 297 297 296 295 295 294 294 293 293 293 293 292 292 292 291 291 291 291 291 291 291 291 291 291 291 290 290 289 289 288 288 287 286 286 285 284 283 282 282 281 280 279 278 277 276 276 275 274 273
296 296 296 295 294 295 295 294 294 294 296 297 298 300 302 303 302 301 301 300 301 302 302 303 303 302 302 303 303 303 301 300 299 298 298 298 298 297 297 296 296 295 295 294 294 294 293 293 293 292 292 292 292 292 292 292 292 292 292 291 291 291 290 289 289 288 288 287 287 286 286 285 284 283 282 281 280 279 279 278 277 276 276 275 274 273
291 291 292 293 292 290 290 293 296 298 300 299 299 299 301 303 304 304 304 304 303 304 304 304 304 304 303 303 303 302 300 299 297 297 296 296 296 297 297 296 296 296 295 295 295 294 294 294 294 293 293 293 292 292 292 292 292 292 291 291 290 290 289 288 288 288 287 287 287 286 285 284 283 282 281 280 279 279 278 277 276 275 274 273 273 272
291 291 291 291 291 289 287 291 297 303 305 304 302 301 300 301 303 305 306 305 305 305 304 304 304 303 304 303 302 301 300 299 298 297 297 297 297 297 297 297 296 296 296 296 296 295 295 295 294 294 293 293 293 292 292 292 292 291 291 290 290 289 289 288 288 287 287 287 286 286 285 284 283 282 281 280 279 278 277 276 275 274 273 272 271 270
292 292 291 290 291 293 295 299 303 306 307 306 305 304 303 303 303 304 304 305 306 306 306 304 303 302 301 301 301 300 299 299 298 299 299 299 300 300 299 299 298 298 298 297 297 296 295 295 294 294 293 293 292 292 292 292 291 291 291 290 290 289 289 288 288 287 287 287 286 286 285 284 284 283 282 280 279 278 277 276 275 274 274 273 272 271
289 288 287 288 293 299 304 306 307 306 306 305 304 304 304 305 305 304 302 303 304 305 305 304 302 301 299 298 298 298 298 298 298 299 300 300 301 302 302 301 300 300 299 299 297 296 296 295 295 294 293 293 292 292 292 292 292 291 291 291 290 290 289 288 288 287 287 287 286 286 285 284 284 283 282 281 280 280 279 278 277 276 276 275 274 273
288 288 290 294 300 304 305 306 305 304 304 303 303 303 303 305 305 305 303 303 303 303 303 302 300 298 298 297 297 296 297 298 299 300 300 300 301 302 302 302 300 300 299 298 297 296 295 296 295 294 293 293 292 292 292 292 292 292 292 291 291 290 289 289 288 288 287 287 287 286 285 284 284 283 282 281 281 280 279 278 277 277 276 275 274 273
291 296 300 302 303 303 303 302 302 301 301 302 302 302 303 304 305 305 304 303 303 303 302 300 298 297 297 296 297 299 300 301 301 301 300 300 301 302 303 302 300 299 298 297 296 295 296 295 294 294 293 293 293 293 293 293 293 293 292 292 291 290 289 289 289 288 288 287 287 286 285 285 284 283 282 281 280 279 278 278 277 276 275 274 274 273
299 302 302 301 300 300 300 300 300 300 301 302 303 303 303 304 304 304 302 301 301 301 301 300 299 298 298 299 301 303 304 303 302 301 301 301 301 302 303 301 299 298 297 296 295 295 296 295 294 293 293 293 293 293 294 293 293 293 293 292 291 290 290 289 289 289 289 288 288 287 286 285 284 283 282 281 281 280 279 278 277 276 275 274 274 273
301 300 298 297 297 297 298 299 299 300 301 301 302 302 301 301 301 301 299 298 299 299 298 297 296 298 301 304 305 305 306 305 303 301 301 300 300 301 302 300 297 296 296 295 295 295 296 295 295 294 294 294 294 294 294 294 293 293 293 292 292 291 291 291 291 290 290 289 289 288 287 286 285 284 283 282 281 280 279 278 277 276 275 274 273 272
297 296 295 295 295 296 298 299 299 299 300 300 300 300 299 298 298 297 296 295 294 294 294 294 294 297 303 305 305 305 306 305 304 302 300 299 299 300 300 298 296 294 295 295 295 295 296 295 295 294 294 294 294 294 294 294 294 293 293 293 293 293 293 292 292 291 291 290 289 288 287 286 285 284 282 281 280 279 278 277 276 275 274 273 272 272
293 293 293 294 295 296 297 297 298 298 298 298 299 299 298 297 296 295 294 292 289 288 289 293 298 300 302 301 301 302 304 304 303 300 298 297 297 299 300 299 296 294 294 295 295 296 296 295 295 294 294 294 294 294 294 294 294 294 294 294 294 293 293 293 292 292 291 290 289 288 287 286 285 284 283 282 281 279 278 277 276 275 274 273 272 271
291 291 292 293 295 296 295 295 295 295 296 297 298 298 297 296 294 292 291 289 288 288 293 298 301 301 301 299 299 300 302 303 301 298 295 295 296 298 299 299 297 295 295 295 296 297 297 296 295 295 294 294 294 295 295 295 295 295 294 294 294 293 293 292 292 291 290 289 288 288 287 287 286 285 284 283 282 281 280 279 278 276 275 274 273 272
291 291 291 293 294 294 294 293 293 294 294 296 297 296 294 292 290 288 287 289 293 298 301 302 300 299 299 297 296 297 299 300 298 295 294 294 295 296 299 299 298 296 295 296 296 297 297 296 296 296 296 296 296 296 296 295 295 295 294 294 293 293 292 292 291 290 290 289 289 288 288 287 287 286 285 285 284 283 282 281 279 278 276 275 274 273
291 291 292 292 292 291 291 292 292 293 293 293 292 290 288 285 285 287 293 300 304 305 303 300 298 297 296 293 292 293 296 295 293 292 293 293 294 295 298 299 298 296 295 295 297 298 298 297 297 297 297 296 296 296 295 295 295 294 294 294 293 292 292 291 291 290 290 290 289 289 289 288 288 287 287 286 285 284 283 282 280 279 278 277 275 274
289 290 291 291 290 289 289 290 290 290 289 286 284 283 282 284 289 298 306 308 306 303 299 297 295 293 291 289 289 291 293 292 292 291 291 289 292 295 298 299 298 296 294 296 298 300 300 299 298 298 297 297 296 295 295 295 294 294 294 294 293 293 292 292 291 291 290 290 290 290 290 289 289 288 287 287 286 285 284 283 282 281 279 278 277 276
287 288 289 289 288 287 287 287 287 287 286 285 284 285 289 295 301 305 305 304 302 298 296 294 293 292 290 290 290 291 293 294 294 294 292 289 290 293 297 298 298 296 295 297 299 301 301 300 299 298 298 297 296 295 295 295 294 294 294 294 293 293 293 292 292 291 291 291 291 290 290 289 289 288 287 286 285 284 284 284 283 283 282 280 279 278
288 288 288 288 288 287 287 287 288 289 290 293 296 300 304 306 305 303 301 299 296 295 293 293 292 291 291 293 294 294 295 296 296 295 292 290 290 292 295 297 297 296 296 298 300 302 302 301 300 299 298 297 296 296 295 295 294 294 294 294 294 294 294 293 293 292 292 291 291 290 289 289 288 287 286 285 284 284 283 282 282 282 282 282 281 280
290 290 289 289 289 290 290 291 292 294 296 299 302 304 305 305 304 302 298 296 294 294 294 293 291 292 294 295 295 295 297 298 297 294 291 290 290 292 294 296 297 297 297 300 301 302 302 301 300 300 299 298 297 296 295 295 295 295 296 296 296 295 295 294 293 293 292 291 291 290 289 288 287 286 286 285 285 284 283 282 282 281 281 281 282 281
292 291 290 291 292 293 295 296 297 298 300 300 300 301 301 302 301 298 295 294 294 295 295 293 292 293 295 295 295 295 297 298 297 294 291 289 289 290 293 297 299 300 300 301 302 302 301 299 299 299 299 298 297 296 296 296 297 297 298 297 297 296 295 294 294 293 292 292 291 290 289 288 287 286 286 285 285 285 284 284 284 283 282 282 282 282
292 291 292 294 296 298 299 300 300 300 300 299 299 299 299 298 296 293 291 292 295 294 292 290 290 291 294 295 296 296 297 296 295 294 293 291 288 289 293 298 301 302 302 302 302 301 300 298 297 297 298 298 298 298 298 299 299 299 298 298 297 296 296 295 294 294 293 292 291 290 290 289 288 287 287 286 286 285 285 285 285 285 285 284 283 281
293 294 296 299 301 302 303 302 301 300 299 299 298 298 296 293 290 287 288 291 292 291 289 289 289 290 292 294 296 296 295 293 294 296 299 296 292 291 295 300 302 303 304 304 304 303 301 298 297 297 298 299 300 301 301 301 301 300 299 298 297 297 296 295 295 295 294 293 293 292 291 290 289 288 288 287 286 286 285 285 285 285 285 284 282 280
300 302 304 305 305 304 303 302 301 300 299 298 298 297 295 290 286 284 285 287 287 286 286 288 289 290 292 295 295 295 293 292 295 300 305 302 296 295 298 300 301 303 305 306 306 304 302 302 301 300 300 301 302 302 302 302 301 300 300 299 298 298 297 296 296 296 295 295 294 293 292 291 290 290 289 288 287 287 286 286 286 286 285 284 282 279
307 308 308 307 306 305 303 302 300 300 299 299 298 297 295 291 287 284 284 284 283 282 284 286 288 289 291 293 293 290 290 292 296 302 306 302 296 295 299 299 300 301 303 304 305 304 304 305 305 304 304 303 303 302 302 302 301 300 300 300 299 298 298 298 298 298 297 296 295 294 293 292 292 291 290 289 288 287 287 287 287 286 285 283 281 278
309 308 307 306 305 304 303 301 300 300 299 299 299 298 296 293 290 287 284 283 282 281 282 284 285 286 286 285 283 281 284 290 294 299 302 298 294 294 297 297 297 299 300 299 296 293 299 304 305 305 305 304 303 302 302 302 301 300 300 300 299 299 299 299 300 299 298 297 296 295 294 293 292 292 291 290 288 287 287 287 287 286 284 282 280 278
307 305 305 304 303 303 302 301 301 300 299 300 300 299 297 295 292 289 287 284 283 282 282 283 284 285 284 283 281 281 283 286 291 295 298 297 294 294 295 295 296 297 298 297 294 290 289 290 298 302 303 303 303 302 302 302 301 301 300 300 299 298 299 300 300 300 299 298 297 296 295 294 293 292 291 290 288 288 287 287 287 286 283 282 280 278
305 304 303 303 303 302 302 301 301 301 300 300 300 300 298 296 294 291 289 286 284 283 281 280 281 282 283 284 283 283 284 286 289 293 296 296 293 293 294 294 294 295 296 296 294 292 290 289 293 298 301 302 302 302 302 302 302 301 300 299 298 298 299 300 300 299 299 298 297 296 295 294 293 292 291 289 288 287 287 286 287 286 284 282 281 280
304 303 303 303 303 303 303 303 302 303 302 302 301 300 299 297 295 293 292 290 287 285 283 280 278 278 278 279 281 282 284 286 289 292 294 292 290 290 291 290 291 292 293 293 293 293 291 291 292 295 298 300 301 302 302 302 302 301 300 299 298 297 297 298 298 298 298 297 296 295 294 293 293 292 290 289 288 287 287 287 287 287 285 283 282 281
303 303 304 304 304 304 304 304 304 304 304 303 302 301 300 298 297 295 294 292 290 287 284 281 278 276 275 274 274 276 280 284 288 290 290 288 287 287 287 287 288 289 289 289 290 290 290 291 292 294 295 297 299 301 302 303 303 303 301 300 298 297 296 296 296 296 296 295 294 293 293 293 292 291 289 288 287 288 289 288 288 287 286 285 283 282
303 303 304 305 305 305 305 305 305 305 304 304 303 302 301 299 298 296 295 292 290 288 286 283 280 277 274 272 271 272 275 280 284 286 286 285 284 283 283 284 285 285 285 285 286 288 288 290 292 293 293 293 294 298 301 304 305 304 301 300 299 298 297 296 296 295 294 293 292 291 292 292 291 290 289 289 289 289 289 288 288 289 288 287 285 283
303 304 305 305 306 306 306 305 305 305 304 304 303 302 301 300 298 296 295 292 290 288 287 285 283 280 279 276 275 275 277 279 281 283 284 283 282 281 279 281 282 282 281 280 281 284 285 286 289 290 289 291 293 295 298 301 303 302 301 301 300 299 298 297 297 295 294 292 292 291 291 291 290 290 289 290 290 290 290 290 289 290 290 290 288 286
304 304 305 306 306 306 305 305 304 304 303 302 302 301 300 299 298 297 295 293 291 290 289 287 286 285 285 283 282 281 281 281 282 283 284 284 282 280 278 278 279 280 280 279 278 278 279 280 282 284 286 291 293 294 296 297 298 299 300 302 301 300 299 298 298 297 295 293 292 292 291 291 290 290 289 290 290 290 291 290 291 292 292 291 290 288
305 305 305 306 306 305 304 303 303 303 303 302 301 301 300 299 299 299 298 296 295 294 292 291 290 289 288 288 287 286 285 285 285 285 285 284 283 281 279 277 277 278 279 279 278 276 275 276 278 281 283 285 289 292 294 295 296 297 300 301 301 300 300 300 299 297 295 293 291 290 291 291 291 290 290 290 290 289 288 289 291 292 292 290 289 287
305 305 306 306 306 305 304 302 302 302 302 302 301 301 300 299 300 301 301 300 299 298 297 296 295 294 293 292 291 290 289 289 288 287 286 285 285 283 280 278 276 276 277 278 278 276 275 275 277 280 282 283 286 288 290 292 294 296 297 297 296 297 298 298 297 296 294 293 291 290 291 291 291 291 290 290 290 289 287 287 288 289 290 288 285 283
306 306 306 306 306 305 303 302 302 301 300 300 299 299 299 299 299 300 301 301 301 300 300 300 299 298 297 296 296 295 294 293 291 290 289 289 288 286 283 280 278 277 277 278 278 278 277 277 277 278 280 282 284 287 289 291 293 294 294 294 294 296 298 297 296 295 294 293 292 292 292 291 291 291 291 290 290 290 290 289 288 287 286 285 284 281
306 305 305 305 305 304 304 303 303 302 301 300 299 298 298 298 298 298 298 298 298 299 299 299 299 297 297 296 297 298 298 297 296 295 293 292 291 289 286 284 281 279 278 278 278 279 279 278 278 277 279 280 282 284 287 290 292 293 293 292 293 295 296 296 297 297 295 293 292 291 291 291 291 291 291 291 291 291 291 291 289 287 286 285 284 282
304 305 305 305 305 306 306 305 304 303 301 300 299 298 299 299 298 297 297 296 296 297 298 299 298 297 295 294 296 298 300 300 300 299 298 296 294 293 291 288 286 283 280 277 276 278 281 281 280 279 279 280 281 282 285 288 290 291 291 291 290 289 287 290 294 296 295 293 292 291 291 292 293 294 294 293 293 293 293 292 291 290 288 287 285 283
304 305 306 306 307 307 306 305 305 303 302 301 299 299 300 300 299 298 297 296 296 297 297 298 298 297 295 295 296 298 300 301 302 302 301 301 300 298 295 292 290 287 284 279 276 275 277 279 281 282 282 281 280 280 281 284 287 288 289 290 289 287 285 287 289 292 292 292 292 292 293 294 295 296 296 296 296 295 294 293 292 291 291 290 288 285
306 306 306 307 307 306 305 304 304 304 303 301 300 301 301 302 302 300 299 297 297 297 297 297 296 295 294 295 296 298 299 300 302 303 303 304 303 301 298 295 292 290 286 283 280 277 275 275 277 281 282 282 281 280 280 282 284 286 287 289 289 289 289 289 290 290 290 291 292 293 294 296 297 297 297 297 297 297 296 294 292 291 291 291 290 289
307 307 306 306 306 305 303 304 304 304 303 302 302 302 303 303 303 302 301 299 298 297 297 297 295 292 291 292 294 296 297 299 300 302 303 304 304 303 301 299 296 293 289 286 283 280 278 275 275 276 278 280 281 281 282 283 283 284 285 287 289 290 290 290 291 291 291 291 292 293 296 298 299 299 298 298 298 298 298 296 294 293 293 293 293 292
307 306 306 305 305 304 304 304 304 304 304 303 302 303 304 304 304 303 302 300 299 297 296 296 294 292 291 292 293 294 295 296 298 299 301 302 303 303 303 302 300 297 294 291 287 284 280 278 275 273 272 273 275 278 281 282 282 282 283 286 288 289 289 290 292 293 294 293 293 294 297 298 298 297 298 298 298 299 299 299 298 297 297 296 295 295
306 305 305 305 304 303 304 304 305 305 304 304 303 304 304 305 304 303 301 300 299 297 295 294 293 293 293 293 294 295 296 297 297 298 299 301 303 304 304 304 303 302 301 297 293 290 287 284 280 275 271 268 268 272 276 279 281 282 284 286 288 289 289 291 294 296 297 296 296 296 296 296 295 294 295 295 296 297 298 300 301 301 301 300 300 300
305 304 304 304 304 303 303 304 304 304 303 303 303 303 304 305 304 303 301 299 298 296 295 294 293 293 293 294 295 296 297 297 297 298 299 301 303 304 304 305 305 305 304 302 300 298 296 293 289 285 279 272 269 270 273 278 282 285 288 289 290 291 293 294 296 298 298 298 298 297 297 296 294 293 293 291 292 294 298 300 302 303 304 304 303 303
305 304 304 304 303 303 303 303 303 302 301 301 301 302 302 303 303 302 301 300 298 297 296 295 294 293 293 294 295 296 297 297 297 297 299 302 303 304 303 304 304 305 304 304 303 303 302 301 299 298 295 290 283 279 279 284 288 291 292 292 293 295 295 296 297 298 298 298 298 297 296 295 294 293 290 289 291 294 298 301 303 305 306 306 306 305
Height
764 763 762 762 761 759 757 757 756 754 752 751 750 749 748 746 745 744 743 742 740 739 738 736 735 733 732 730 729 727 726 725 723 722 720 719 718 717 715 714 713 712 711 709 708 707 706 705 704 703 702 701 700 698 698 697 696 695 694 693 692 691 690 689 688 688 687 686 685 685 684 683 683 682 682 681 680 680 679 679 678 678 678 677 677 676
763 762 762 761 760 758 756 755 755 754 752 750 749 748 747 745 744 742 741 740 739 738 736 734 733 731 730 728 727 725 724 723 721 720 718 717 716 715 713 712 711 710 708 707 706 705 704 703 702 700 699 698 697 696 695 694 693 692 691 690 689 688 688 687 686 685 684 683 683 682 681 681 680 679 678 678 678 677 677 676 676 675 675 675 674 674
763 761 760 760 759 758 755 754 753 753 752 750 748 747 746 744 742 741 739 738 737 736 735 733 731 729 728 726 725 723 722 721 719 718 716 715 714 713 711 710 709 708 706 705 704 703 701 700 699 698 697 696 694 693 693 691 690 689 688 688 687 686 685 684 683 682 682 681 680 679 678 678 677 676 676 675 675 674 674 673 673 673 672 672 671 671
763 761 759 758 758 756 755 753 752 751 750 748 747 745 744 743 741 739 738 737 735 734 733 732 730 728 726 724 723 721 720 718 717 716 714 713 712 711 709 708 707 705 704 703 701 700 699 698 697 695 694 693 692 691 690 689 688 687 686 685 684 683 682 681 680 680 679 678 677 676 676 675 674 674 673 673 672 672 671 670 670 669 669 669 668 668
762 760 758 758 756 755 753 753 751 750 748 747 745 743 742 741 739 738 737 736 734 733 731 729 728 726 724 722 721 719 718 717 715 714 713 711 710 709 707 706 704 703 702 700 699 698 697 695 694 693 692 690 689 688 687 686 685 684 683 682 681 680 679 678 678 677 676 675 674 673 673 672 672 671 670 670 669 668 668 668 667 667 666 666 665 665
761 760 758 757 755 754 752 751 750 748 746 745 743 742 741 739 738 737 735 734 733 731 729 727 726 724 723 721 719 718 717 715 714 712 711 709 708 707 705 704 702 701 699 698 697 695 694 693 692 690 689 688 687 686 684 683 683 681 680 679 678 678 677 676 675 674 673 672 672 671 670 669 669 668 668 667 666 666 665 665 664 664 663 663 663 662
759 758 758 756 754 753 751 750 748 747 745 743 741 741 740 738 737 735 734 732 731 729 727 725 724 723 721 719 718 717 715 713 712 710 709 708 706 705 703 702 700 698 697 695 694 693 692 690 689 688 687 685 684 683 682 681 680 678 678 677 676 675 674 673 672 671 670 669 669 668 667 667 666 665 665 664 664 663 663 662 662 661 661 660 660 659
757 756 756 755 753 751 749 748 747 746 744 742 740 739 738 736 735 734 732 730 729 727 725 723 722 721 720 718 717 716 714 712 710 708 707 705 704 703 701 699 698 696 694 693 692 690 689 688 687 685 684 683 682 680 679 678 677 676 675 674 673 672 671 670 669 668 668 667 666 665 665 664 663 663 662 662 661 660 660 659 659 658 658 657 657 656
757 755 754 753 752 750 747 745 745 745 744 742 740 738 736 734 732 731 730 728 727 726 724 722 721 719 718 718 716 715 713 711 709 707 705 703 702 700 698 697 695 693 692 691 689 688 687 686 684 683 682 680 679 678 677 676 675 673 673 672 671 670 669 668 667 666 665 664 663 663 662 661 661 660 659 659 658 658 657 657 656 656 655 654 654 653
757 755 753 751 750 749 747 744 743 743 743 741 740 738 736 733 730 728 727 726 725 724 723 722 720 718 717 716 715 713 711 709 707 705 704 702 700 698 697 695 693 691 690 688 687 686 684 683 682 681 679 678 677 676 675 673 672 671 670 669 668 667 666 665 664 663 663 662 661 660 660 659 658 658 657 656 656 655 654 654 653 653 652 652 651 650
754 753 751 749 748 747 746 744 743 741 741 740 738 736 735 733 731 728 725 724 723 723 722 721 720 718 716 714 713 712 710 707 705 703 701 700 698 697 695 693 691 689 688 686 685 683 682 681 680 678 677 676 674 673 672 671 670 669 668 667 666 665 664 663 662 661 660 659 659 658 657 656 655 655 654 653 653 652 651 651 650 649 649 648 648 647
753 751 750 748 747 745 744 743 742 741 740 738 736 734 733 732 731 729 726 723 722 721 721 720 718 718 716 714 712 710 708 705 703 700 699 698 696 695 693 691 689 688 686 684 683 681 680 679 677 676 675 673 672 671 670 669 668 667 665 664 663 663 662 661 660 659 658 657 656 655 654 653 653 652 651 650 650 649 648 648 647 646 645 645 644 643
752 750 748 747 746 744 743 742 740 739 738 737 735 733 731 730 730 729 727 724 722 721 720 718 717 715 714 713 711 708 706 703 701 699 697 696 694 693 692 689 687 685 684 682 680 679 678 677 675 673 672 671 670 668 668 666 665 664 663 662 661 660 659 658 657 656 655 654 653 653 652 651 650 649 648 647 647 646 645 644 644 643 643 642 641 640
750 748 747 746 745 743 743 741 740 738 737 736 735 733 731 730 729 728 726 724 722 721 720 718 715 713 712 711 709 708 705 703 699 697 696 694 693 692 691 688 686 684 683 681 678 677 676 675 673 671 670 668 667 666 665 664 663 662 661 660 659 658 657 656 654 653 653 652 651 650 649 648 647 646 645 644 643 643 642 641 641 640 639 639 638 638
749 748 746 745 744 743 742 741 739 738 736 735 734 733 731 729 728 727 726 723 722 720 718 716 713 711 710 709 708 707 704 702 699 696 694 692 692 691 690 687 684 682 681 679 677 675 674 673 671 669 667 666 665 664 663 662 661 659 658 657 656 655 654 653 652 651 650 648 648 647 646 645 644 643 642 641 640 640 639 638 638 637 636 636 635 634
748 747 746 744 743 742 741 740 739 737 735 734 733 732 730 729 728 727 725 723 721 719 717 714 711 708 707 706 706 706 704 701 698 695 693 690 689 689 689 687 683 680 678 677 675 673 672 670 669 667 665 664 663 662 661 660 658 657 656 655 653 652 651 650 649 648 647 646 645 644 643 642 641 640 639 638 637 636 636 635 634 633 633 632 632 631
748 747 745 743 742 741 740 739 738 736 735 733 732 731 730 729 727 726 724 723 720 718 716 713 711 707 704 703 703 704 703 701 698 695 692 689 688 687 688 686 682 679 676 675 673 671 670 668 667 665 663 662 661 660 658 657 656 655 653 652 651 649 648 647 646 645 644 643 642 641 640 639 638 637 636 635 634 633 633 632 631 630 629 629 628 628
747 746 744 743 741 740 739 738 737 735 734 733 732 730 729 728 727 725 723 722 719 717 715 713 710 708 705 702 701 701 702 701 698 694 691 688 686 685 685 684 681 678 675 673 671 670 668 666 665 663 662 660 659 658 656 655 653 652 651 649 648 647 646 644 643 642 641 640 639 638 637 636 635 634 633 632 631 630 629 628 628 627 626 625 625 624
745 744 743 742 740 738 738 737 736 734 733 732 731 729 728 727 725 724 722 720 718 716 714 711 709 707 706 703 700 699 700 699 697 694 691 687 684 683 683 682 679 676 673 671 669 668 666 664 663 661 660 658 657 655 654 652 651 650 648 647 646 644 643 642 640 639 638 637 636 634 633 633 631 630 629 628 628 627 626 625 624 623 623 622 621 620
743 743 742 741 739 737 736 735 735 734 733 731 730 728 727 725 723 722 720 718 716 714 713 711 709 707 705 703 700 698 698 698 696 693 690 686 683 681 681 680 677 674 671 669 667 666 665 663 660 659 657 656 654 653 652 650 648 647 646 644 643 642 640 639 638 636 635 634 633 631 630 629 628 627 626 625 624 623 622 622 621 620 619 618 617 617
742 741 741 740 739 737 735 734 733 733 732 730 729 728 726 723 721 719 717 716 714 713 712 710 708 707 705 703 699 697 697 697 695 692 688 684 681 679 679 678 676 673 669 667 665 664 663 661 658 657 655 653 652 651 649 648 646 645 643 642 640 639 638 636 635 633 632 631 630 628 627 626 625 624 623 622 621 620 619 618 617 616 615 614 614 613
741 740 739 739 738 736 734 733 732 731 731 729 728 726 723 721 719 717 715 714 713 712 711 709 708 706 704 702 699 696 696 696 694 691 688 683 680 677 677 676 674 671 668 665 663 662 661 659 657 655 653 652 650 648 647 645 644 642 641 639 638 636 635 633 632 631 629 628 627 626 624 623 622 621 620 619 618 617 616 615 614 613 612 611 610 609
741 739 738 737 736 735 733 732 731 730 729 728 726 723 721 720 718 716 715 714 713 711 710 708 706 704 703 700 697 695 694 694 693 691 688 683 679 676 675 675 673 669 666 663 662 660 658 657 655 653 651 649 648 646 644 643 641 639 638 636 635 633 632 631 629 628 627 625 624 623 622 621 619 618 617 616 615 613 613 611 610 609 608 607 607 606
739 738 737 736 735 733 732 731 729 728 726 725 723 721 720 718 717 716 715 713 712 711 708 707 704 702 700 698 696 694 693 692 691 690 687 683 679 675 674 673 671 668 664 662 661 659 657 654 653 651 649 647 645 643 642 640 638 637 635 634 632 631 629 628 627 625 624 623 622 620 619 618 616 615 614 613 612 610 609 608 607 606 605 604 603 602
738 737 735 734 733 732 731 729 728 726 724 723 722 720 719 718 716 715 714 713 711 710 708 705 703 700 698 696 694 692 690 690 690 688 686 682 678 675 673 672 670 667 663 660 659 658 656 653 650 648 647 644 643 641 639 638 636 634 633 631 630 628 627 626 624 623 622 620 619 618 616 615 613 612 611 610 608 607 606 605 604 603 601 600 599 598
737 735 734 733 731 730 728 727 726 724 723 722 721 720 718 717 715 714 713 711 710 708 707 704 702 699 697 695 693 691 689 688 688 687 685 682 677 673 671 671 669 666 662 658 657 656 654 651 648 646 644 642 640 638 637 635 633 632 631 629 628 626 625 623 622 620 619 617 616 615 613 612 611 609 608 607 606 604 603 602 600 599 598 597 596 594
735 733 732 731 729 728 727 725 724 723 722 721 720 719 718 716 715 713 711 710 709 708 706 704 701 698 696 694 692 689 687 686 686 685 684 681 677 673 670 669 668 665 661 658 655 654 653 650 646 643 642 639 638 636 634 633 632 630 628 627 625 624 622 621 619 618 616 614 613 612 610 609 608 606 605 604 603 601 600 599 597 596 595 593 592 591
733 731 730 728 727 726 725 724 723 722 721 720 719 718 717 716 714 712 710 709 708 707 705 703 701 698 696 693 691 688 686 684 683 683 682 680 677 673 670 668 667 665 661 657 653 651 650 648 645 642 640 638 636 634 632 631 629 628 626 624 623 621 620 618 616 615 613 612 610 609 608 606 605 603 602 601 600 598 597 596 594 593 592 590 589 587
730 729 728 727 726 725 723 722 721 720 719 718 717 716 716 715 713 711 709 708 708 706 704 702 700 698 696 693 690 688 685 683 681 681 680 679 675 672 670 668 666 664 662 657 652 648 646 645 643 641 638 636 634 633 631 629 627 625 623 622 620 618 617 615 614 612 611 609 608 606 605 603 602 601 599 598 597 595 594 593 591 590 589 587 585 583
728 727 726 725 724 723 722 721 719 718 717 716 715 715 714 713 712 710 708 708 707 705 703 701 699 697 695 693 690 686 683 680 679 680 680 678 675 671 669 668 666 664 662 658 652 646 641 640 640 640 638 635 633 631 629 627 625 623 621 619 617 615 614 613 612 610 608 607 605 604 602 601 599 598 597 595 594 593 591 590 589 588 586 584 582 580
727 726 725 723 723 722 721 719 718 717 716 715 714 713 712 711 710 709 708 706 705 704 702 700 698 697 695 693 690 686 681 678 678 679 679 677 674 671 669 667 665 663 662 660 656 649 641 635 634 636 636 634 632 630 628 626 624 622 619 617 615 613 611 610 609 608 606 604 603 601 599 598 597 595 594 593 591 589 588 587 586 585 583 581 578 576
726 725 724 723 721 720 719 718 717 715 714 713 712 711 710 709 708 708 706 705 704 703 701 699 697 695 694 693 690 686 681 677 676 678 678 676 673 670 668 667 664 662 661 660 658 654 647 638 633 631 632 632 630 628 626 624 623 621 618 616 613 611 609 608 607 605 603 602 600 598 597 595 594 593 591 589 588 587 585 584 583 582 580 578 575 573
725 724 723 722 720 719 718 717 715 714 713 712 711 710 709 708 707 706 705 703 703 701 700 698 696 694 692 691 688 685 681 677 676 676 677 675 673 669 667 666 663 661 659 658 657 654 650 643 637 632 629 628 628 626 624 623 621 619 617 615 612 609 607 606 605 603 601 599 597 595 594 592 591 589 588 586 585 583 582 581 580 579 578 575 573 570
725 723 722 721 719 718 717 715 714 713 712 711 709 708 708 706 705 704 703 702 701 700 698 697 695 693 691 688 686 683 679 676 675 675 676 674 672 669 666 664 662 660 658 655 653 651 648 644 640 635 630 626 624 623 623 621 619 618 616 614 611 608 606 604 603 601 599 597 595 593 591 589 588 586 585 583 582 580 579 578 576 575 574 573 570 568
723 722 721 720 718 717 715 714 713 712 711 709 708 707 706 705 704 703 701 700 699 698 697 695 694 692 690 688 684 681 677 674 673 673 674 673 671 668 665 663 661 659 657 654 651 649 646 642 639 636 632 626 622 620 620 619 618 616 614 612 610 608 605 603 602 599 597 595 593 591 589 587 585 584 582 580 579 577 576 574 573 572 570 569 567 565
723 721 720 718 717 716 714 713 712 711 709 708 707 706 705 704 702 701 700 698 697 696 694 693 692 690 688 686 683 680 676 672 671 671 672 671 669 667 664 661 659 658 656 653 650 648 645 641 638 635 632 628 623 618 617 616 616 614 612 610 608 606 604 602 600 598 596 593 591 589 587 585 583 582 579 578 576 574 573 571 569 568 566 565 563 562
722 720 719 718 717 715 714 712 711 710 708 707 706 705 703 702 701 699 698 696 695 693 692 690 688 687 685 683 681 678 674 672 670 669 668 668 667 665 663 660 658 656 654 652 649 646 643 640 636 633 631 628 624 619 615 613 612 611 609 608 606 604 602 600 598 597 595 592 589 587 585 583 581 579 577 575 573 571 569 567 566 564 563 561 559 558
721 720 718 717 716 714 713 712 710 709 708 706 705 703 702 701 699 698 696 694 693 691 689 688 686 684 682 680 678 676 673 671 668 667 666 666 665 663 661 658 655 654 653 650 648 645 643 639 636 632 628 625 623 620 617 614 611 609 606 604 603 602 599 598 596 595 593 590 588 585 583 581 579 577 574 572 570 568 566 563 562 560 558 557 555 553
720 719 718 716 715 714 713 711 709 708 707 705 704 702 701 699 698 696 694 692 691 689 687 686 683 681 679 677 675 673 671 669 667 665 664 663 662 661 659 656 653 651 650 648 646 644 642 639 636 632 628 624 620 618 616 614 611 608 605 602 600 598 597 596 594 593 590 588 586 583 581 578 577 575 572 570 568 566 564 561 558 557 555 553 550 548
720 718 717 716 714 713 712 710 709 707 706 704 703 701 699 698 696 694 692 690 689 687 685 684 682 680 677 675 673 671 669 667 665 663 662 660 659 658 657 654 652 649 647 646 644 642 640 637 634 631 628 625 621 617 614 612 610 608 605 602 598 595 593 593 592 590 588 586 584 581 578 576 574 573 570 568 566 564 562 559 556 554 552 550 548 544
719 718 716 715 713 712 711 709 708 706 705 703 701 699 698 696 694 693 690 688 687 685 683 682 680 678 675 673 670 668 666 664 663 661 659 658 657 655 654 652 650 648 645 643 642 639 638 635 632 629 626 623 620 617 613 610 608 607 605 602 598 594 592 591 590 588 586 583 582 579 577 575 572 570 568 566 563 561 559 557 554 551 549 547 545 542
718 717 715 714 713 711 709 708 706 705 703 702 700 698 697 695 693 692 689 687 685 683 682 680 678 676 673 670 667 665 663 662 660 659 657 656 654 653 651 649 648 646 644 641 639 637 635 633 630 627 624 622 619 615 611 608 606 605 603 601 598 593 590 588 587 586 584 582 579 577 575 573 570 568 565 563 560 558 556 554 552 549 546 543 541 539
718 716 715 713 712 710 708 707 705 703 702 700 698 697 695 694 693 691 689 687 684 682 680 679 677 675 672 668 665 662 660 659 658 656 655 653 652 651 649 647 645 643 642 639 637 634 632 630 628 625 623 620 618 614 611 607 604 602 601 599 597 594 590 586 583 583 582 580 577 575 573 571 568 566 563 561 558 555 553 551 548 546 544 541 538 536
717 715 714 712 711 709 708 706 704 702 701 699 697 695 694 693 691 690 688 685 683 681 679 678 676 673 671 668 664 661 658 656 655 653 653 651 650 648 647 645 643 641 640 638 635 632 629 627 625 623 621 619 616 613 609 606 603 600 598 597 596 594 590 586 583 581 579 577 575 573 571 569 566 563 561 558 555 553 550 548 545 542 540 538 535 533
716 714 713 711 710 708 707 705 703 701 699 698 696 694 693 691 690 688 687 684 682 680 678 677 675 672 669 666 663 661 658 655 653 651 649 648 647 646 645 643 641 639 637 635 633 630 628 625 622 619 618 616 614 611 608 605 602 598 596 594 593 591 588 585 582 580 578 575 572 570 568 567 565 562 558 555 553 550 548 545 542 539 536 534 532 529
715 714 712 711 709 708 706 704 702 700 698 697 695 693 692 690 688 687 685 683 681 679 677 676 674 672 668 665 662 660 657 654 651 649 647 645 644 643 642 640 638 637 634 632 630 628 626 623 620 618 615 613 611 608 606 603 600 597 593 592 590 588 585 583 580 578 576 573 571 568 566 565 563 560 557 553 550 547 544 542 539 537 533 530 528 526
714 713 711 710 708 706 705 703 702 700 698 695 693 692 690 689 687 686 684 682 680 678 676 674 672 670 667 664 662 659 656 653 650 648 645 643 642 640 639 638 636 634 632 630 628 625 623 621 618 616 614 612 608 605 603 601 599 596 593 590 588 586 583 580 578 576 574 572 569 567 564 563 561 558 555 551 548 544 541 538 536 534 531 528 526 523
714 712 711 709 707 706 704 702 701 699 697 695 693 691 689 688 687 685 683 681 679 677 675 673 671 668 666 663 661 658 656 653 650 647 644 642 640 638 637 635 633 631 629 627 625 623 620 618 616 614 613 610 607 603 600 598 596 593 591 588 586 584 581 578 575 574 572 570 568 565 564 562 560 557 553 549 545 541 538 535 533 531 528 526 523 521
713 712 710 708 707 705 703 702 700 698 696 694 692 690 688 686 685 684 682 680 678 676 674 671 669 667 664 661 659 657 655 652 649 646 643 641 638 637 634 633 631 628 626 623 621 619 617 614 613 611 610 608 606 602 598 596 593 591 589 587 585 582 579 576 573 572 570 568 566 564 562 561 558 556 553 549 544 539 535 532 529 528 526 523 521 519
713 711 709 708 706 704 703 701 699 698 696 693 691 689 687 685 683 682 681 678 677 674 672 670 668 665 663 660 658 655 653 650 648 644 642 640 638 636 633 631 629 626 623 620 618 615 613 610 608 607 606 605 603 601 598 594 591 589 587 585 583 581 578 575 572 570 568 566 564 562 560 558 556 554 552 548 543 538 533 530 527 524 523 521 518 516
711 710 708 707 705 704 702 700 698 697 695 693 691 689 686 684 682 680 679 677 675 673 671 669 667 664 662 659 656 654 652 649 646 643 641 638 637 635 633 630 628 625 622 618 615 613 610 607 604 602 602 602 601 600 597 593 590 587 585 583 581 579 577 574 571 568 567 565 563 560 558 556 553 551 549 546 542 538 533 528 525 522 520 518 516 513